Tracking 18784 objects as of 18-August-2017
HD Live streaming from Space Station
objects crossing your sky now

VANGUARD R/B

Track VANGUARD R/B now!
10-day predictions


NORAD ID: 12
Int'l Code: 1959-001B
Perigee: 560.9 km
Apogee: 3,335.5 km
Inclination: 32.9 °
Period: 125.9 minutes
Semi major axis: 8319 km
RCS: 0.5381 m2 (medium)
Launch date: February 17, 1959
Source: United States (US)
Launch site: AIR FORCE EASTERN TEST RANGE (AFETR)

Note: This is a ROCKET BODY
Your satellite tracking list
Your tracking list is empty





NASA's NSSDC Master Catalog

Two Line Element Set (TLE):
1    12U 59001B   17229.83669656 -.00000129 +00000-0 -70914-4 0  9997
2    12 032.9015 010.4062 1667605 037.0343 333.4449 11.44143180161442
Source of the keplerian elements: AFSPC